User: anonymous   Login
Location: Los Gatos B&B
(42.6926°N, 77.0646°W)
Time: 09:05:52
(UTC-05:00)
Language:

SL-16 R/B - Orbit

View from above orbital plane
View from above orbital plane
View from above satellite
View from above satellite

Ground track
Ground track

The orbit data is extracted from the following two-line orbital elements,

1 28353U 04021B   17345.68688529 +.00000204 +00000-0 +13205-3 0  9990
2 28353 071.0027 066.2162 0007278 284.3033 075.7280 14.14205622697244
Epoch (UTC): 11 December 2017 16:29:06
Eccentricity: 0.0007278
inclination: 71.0027°
perigee height: 840 km
apogee height: 850 km
right ascension of ascending node: 66.2162°
argument of perigee: 284.3033°
revolutions per day: 14.14205622
mean anomaly at epoch: 75.7280°
orbit number at epoch: 69724

The dashed part of the orbit path shows where the satellite is in the earth's shadow,  

DLR